Hourly Data Report for October 09, 2015

All times are specified in Local Standard Time (LST). Add 1 hour to adjust for Daylight Saving Time where and when it is observed.

CHARLOTTETOWN A
PRINCE EDWARD ISLAND

46°17'21.000" N
63°07'09.000" W
48.50 m
8300301
71706
YYG

Download Data

Hourly Data (October 2015)
Hourly Data Report for October 9, 2015
Temp Definition
°C
Dew Point Temp Definition
°C
Rel Hum Definition
%
Wind Dir Definition
10's deg

Wind Spd Definition
km/h
Visibility Definition
km
Stn Press Definition
kPa
Hmdx Definition


Wind Chill Definition


Weather Definition


TIME
00:00 Legend Double Dagger 6.2 3.7 84 33 9 24.1 101.24     LegendNANA
01:00 Legend Double Dagger 6.1 3.8 85 26 6 24.1 101.23     LegendNANA
02:00 Legend Double Dagger 6.8 2.7 75 29 9 24.1 101.24     Mostly Cloudy
03:00 Legend Double Dagger 6.2 2.7 78 36 3 24.1 101.24     LegendNANA
04:00 Legend Double Dagger 6.4 3.0 79 27 3 24.1 101.20     LegendNANA
05:00 Legend Double Dagger 6.2 3.2 81 30 7 24.1 101.19     Cloudy
06:00 Legend Double Dagger 6.5 2.0 73 28 7 24.1 101.22     LegendNANA
07:00 Legend Double Dagger 4.1 2.5 89 26 5 24.1 101.25     LegendNANA
08:00 Legend Double Dagger 7.2 3.3 76 31 4 24.1 101.29     Mostly Cloudy
09:00 Legend Double Dagger 9.2 2.3 62 30 9 24.1 101.32     LegendNANA
10:00 Legend Double Dagger 10.3 4.1 65 30 10 24.1 101.27     LegendNANA
11:00 Legend Double Dagger 10.7 3.5 61 29 7 24.1 101.21     Mostly Cloudy
12:00 Legend Double Dagger 11.0 4.0 62 23 12 24.1 101.12     LegendNANA
13:00 Legend Double Dagger 10.5 0.3 49 22 18 24.1 101.06     LegendNANA
14:00 Legend Double Dagger 9.6 1.3 56 24 11 24.1 101.00     Cloudy
15:00 Legend Double Dagger 9.6 1.0 55 22 8 24.1 100.94     LegendNANA
16:00 Legend Double Dagger 9.8 1.0 54 15 4 24.1 100.85     LegendNANA
17:00 Legend Double Dagger 9.4 2.1 60 15 9 24.1 100.74     Cloudy
18:00 Legend Double Dagger 9.1 3.7 69 14 11 24.1 100.68     LegendNANA
19:00 Legend Double Dagger 8.4 5.7 83 13 13 19.3 100.59     Rain Showers
20:00 Legend Double Dagger 9.5 6.8 83 15 25 19.3 100.40     Rain Showers
21:00 Legend Double Dagger 10.0 7.1 82 16 31 19.3 100.33     Rain Showers
22:00 Legend Double Dagger 9.2 7.2 87 16 24 16.1 100.22     Rain Showers
23:00 Legend Double Dagger 9.4 8.0 91 16 27 8.1 100.03     Rain Showers,Fog

Notes on Data Quality.

Legend

  • E = Estimated
  • M = Missing
  • NA = Not Available
  • ‡ = Partner data that is not subject to review by the National Climate Archives
Date modified: